Preview of NWS' New Version of Forecast
This preview is not operational and should not be used for support decisions.

Regional Weather Roundup (RWR)

Issued by National Weather Service (NWS)

                            
000
ASPQ40 PGUM 200910
RWRPQ 
WEATHER ROUNDUP FOR THE MARIANAS AND MICRONESIA
NATIONAL WEATHER SERVICE TIYAN GU
700 PM CHST TUE AUG 20 2019

GUZ001>004-201000-
MARIANA ISLANDS-
  
CITY           SKY/WX    TMP DP  RH WIND       PRES   REMARKS
GUAM AIRPORT   CLEAR     81  73  78 SW3       29.83R                  
ANDERSEN AFB   PTCLDY    81  72  74 W7        29.84R                  
ROTA AIRPORT   PTCLDY    81  75  83 S15       29.78S                  
TINIAN AP      PTCLDY    84  77  79 CALM      29.81R HX  94           
SAIPAN AP      PTCLDY    82  75  78 S5        29.83R                  

$$

PMZ161-201000-
REPUBLIC OF PALAU-
  
CITY           SKY/WX    TMP DP  RH WIND       PRES   REMARKS
KOROR AP       MOCLDY    84  75  74 SW10G22   29.74  HX  92           
KOROR WSO      NOT AVBL                                               

$$

PMZ171>174-201000-
FEDERATED STATES OF MICRONESIA-
  
CITY           SKY/WX    TMP DP  RH WIND       PRES   REMARKS
YAP AIRPORT    MOCLDY    81  77  89 SW9       29.76R                  
CHUUK AP       CLOUDY    84  79  84 NW7       29.78R HX  96           
POHNPEI AP     NOT AVBL                                               
POHNPEI WSO    MOCLDY    82  77  83 SE3       29.81R HX  91           
KOSRAE AP      NOT AVBL                                               

$$

PMZ181-201000-
REPUBLIC OF THE MARSHALL ISLANDS-
  
CITY           SKY/WX    TMP DP  RH WIND       PRES   REMARKS
KWAJALEIN AP   CLEAR     84  77  79 S6        29.77R HX  94           
MAJURO AP      NOT AVBL                                               
MAJURO WSO     MOCLDY    82  75  78 VRB3      29.79R                  

$$